TimeAKST,TemperatureF,Dew PointF,Humidity,Sea Level PressureIn,VisibilityMPH,Wind Direction,Wind SpeedMPH,Gust SpeedMPH,PrecipitationIn,Events,Conditions,WindDirDegrees,DateUTC
12:56 AM,-18.0,-24.0,74,30.41,10.0,Calm,Calm,-,N/A,,Overcast,0,2013-11-30 09:56:00
1:56 AM,-13.0,-18.0,78,30.43,4.0,Calm,Calm,-,0.00,Snow,Light Snow,0,2013-11-30 10:56:00
2:56 AM,-11.9,-16.1,82,30.45,6.0,Calm,Calm,-,0.00,Snow,Light Snow,0,2013-11-30 11:56:00
3:56 AM,-9.9,-16.1,74,30.47,5.0,Calm,Calm,-,0.00,Snow,Light Snow,0,2013-11-30 12:56:00
4:56 AM,-11.0,-16.1,78,30.50,6.0,Calm,Calm,-,0.00,Snow,Light Snow,0,2013-11-30 13:56:00
5:56 AM,-16.1,-20.0,82,30.52,10.0,Calm,Calm,-,0.00,,Partly Cloudy,0,2013-11-30 14:56:00
6:56 AM,-20.9,-26.0,77,30.55,10.0,Calm,Calm,-,N/A,,Clear,0,2013-11-30 15:56:00
7:56 AM,-26.0,-29.0,85,30.59,10.0,Calm,Calm,-,N/A,,Clear,0,2013-11-30 16:56:00
8:56 AM,-27.0,-31.0,81,30.59,10.0,Calm,Calm,-,N/A,,Clear,0,2013-11-30 17:56:00
9:56 AM,-27.0,-33.0,73,30.63,10.0,Calm,Calm,-,N/A,,Clear,0,2013-11-30 18:56:00
10:56 AM,-27.0,-31.0,81,30.65,10.0,Calm,Calm,-,N/A,,Clear,0,2013-11-30 19:56:00
11:56 AM,-27.0,-31.0,81,30.67,10.0,Calm,Calm,-,N/A,,Clear,0,2013-11-30 20:56:00
12:56 PM,-25.1,-29.9,78,30.68,10.0,Calm,Calm,-,N/A,,Clear,0,2013-11-30 21:56:00
1:56 PM,-22.0,-27.9,74,30.68,10.0,Calm,Calm,-,N/A,,Clear,0,2013-11-30 22:56:00
2:56 PM,-31.0,-9999,N/A,30.70,10.0,Calm,Calm,-,N/A,,Clear,0,2013-11-30 23:56:00
3:56 PM,-29.0,-34.1,77,30.69,10.0,Calm,Calm,-,N/A,,Clear,0,2013-12-01 00:56:00
4:56 PM,-27.0,-32.1,77,30.69,10.0,Calm,Calm,-,N/A,,Clear,0,2013-12-01 01:56:00
5:56 PM,-27.0,-34.1,69,30.72,10.0,Calm,Calm,-,N/A,,Clear,0,2013-12-01 02:56:00
6:56 PM,-29.0,-34.1,77,30.72,10.0,NE,3.5,-,N/A,,Clear,50,2013-12-01 03:56:00
7:56 PM,-29.0,-36.0,69,30.75,10.0,Calm,Calm,-,N/A,,Clear,0,2013-12-01 04:56:00
8:56 PM,-32.1,-9999,N/A,30.75,10.0,Calm,Calm,-,N/A,,Clear,0,2013-12-01 05:56:00
9:56 PM,-29.0,-35.0,73,30.77,10.0,NE,3.5,-,N/A,,Clear,50,2013-12-01 06:56:00
10:56 PM,-29.9,-9999,N/A,30.80,10.0,Calm,Calm,-,N/A,,Clear,0,2013-12-01 07:56:00
11:56 PM,-27.9,-34.1,73,30.82,10.0,NNE,4.6,-,N/A,,Clear,20,2013-12-01 08:56:00